Station PSTL1 - 8760922 - Pilot's Station East, SW Pass, LA Image indicating link to RSS feed of recent meteorological observations for station PSTL1


Conditions at PSTL1 as of
(10:48 am CDT)
1548 GMT on 06/16/2024:
     

Click on the graph icon in the table below to see a time series plot of the last five days of that observation.

5-day plot - Wind Direction Wind Direction (WDIR): S ( 180 deg true )
5-day plot - Wind Speed Wind Speed (WSPD): 8.9 kts
5-day plot - Wind Gust Wind Gust (GST): 15.9 kts
5-day plot - Atmospheric Pressure Atmospheric Pressure (PRES):29.98 in
5-day plot - Water Temperature Water Temperature (WTMP): 80.6 °F
5-day plot - Wind Speed at 10 Meters Wind Speed at 10 meters (WSPD10M): 9.7 kts
5-day plot - Wind Speed at 20 Meters Wind Speed at 20 meters (WSPD20M): 9.7 kts
5-day plot -  Wind Speed, Wind Gust and Atmospheric Pressure Combined plot of Wind Speed, Gust, and Air Pressure
NOS Water Level Observation Network Water Level
Previous observations
TIME
(CDT)
5-day plot - Wind Direction
WDIR
 
5-day plot - Wind Speed
WSPD
kts
5-day plot - Wind Gust
GST
kts
5-day plot - Wave Height
WVHT
ft
5-day plot - Dominant Wave Period
DPD
sec
5-day plot - Average Wave Period
APD
sec
5-day plot - Mean Wave Direction
MWD
 
5-day plot - Atmospheric Pressure
PRES
in
5-day plot - Pressure Tendency
PTDY
in
5-day plot - Air Temperature
ATMP
°F
5-day plot - Water Temperature
WTMP
°F
5-day plot - Dew Point
DEWP
°F
5-day plot - Salinity
SAL
psu
5-day plot - Visibility
VIS
nmi
5-day plot - Tide (above MLLW)
TIDE
ft
2024-06-16 10:42 am S 17.1 21.0----29.98-- 80.6----
2024-06-16 10:36 am S 18.1 24.1----29.98-- 80.6----
2024-06-16 10:30 amSSE 15.0 22.0----29.98- 75.0 80.6----
2024-06-16 10:24 am SE 13.0 18.1----29.97- 75.4 80.6----
2024-06-16 10:18 am SE 13.0 19.0----29.97-- 80.8----
2024-06-16 10:12 am SE 14.0 15.9----29.97-- 80.8----
2024-06-16 10:06 amSSE 11.1 13.0----29.96-- 80.8----
2024-06-16 10:00 amSSE 8.9 15.0----29.96+0.04 75.7 80.6----
2024-06-16 09:54 amSSE 14.0 21.0----29.96- 75.2 80.6----
2024-06-16 09:48 amSSE 21.0 24.1----29.95-- 80.6----
2024-06-16 09:42 amSSE 21.0 25.1----29.95-- 80.6----
2024-06-16 09:36 amSSE 19.0 26.0----29.96-- 80.6----
2024-06-16 09:30 am-------29.96-- 80.6----
2024-06-16 09:24 am-------29.96-- 80.6----
2024-06-16 09:18 am S 15.0 18.1----29.96- 72.9 80.8----
2024-06-16 09:12 am S 18.1 27.0----29.96- 72.9 80.6----
2024-06-16 09:06 am S 19.0 25.1----29.96- 73.8 80.8----
2024-06-16 09:00 amSSE 19.0 28.0----29.95+0.05- 80.8----
2024-06-16 08:54 amSSE 26.0 32.1----29.94-- 80.8----
2024-06-16 08:48 amSSE 13.0 21.0----29.94- 76.5 80.8----
2024-06-16 08:42 am SE 8.0 11.1----29.94- 77.4 80.8----
2024-06-16 08:36 amSSE 8.0 12.0----29.93- 77.5 80.8----
2024-06-16 08:30 am S 9.9 12.0----29.93- 77.4 80.8----
2024-06-16 08:24 amSSE 12.0 14.0----29.93- 77.7 80.8----
2024-06-16 08:18 am S 11.1 13.0----29.93-- 80.8----
2024-06-16 08:12 am S 11.1 13.0----29.93-- 80.6----
2024-06-16 08:06 am S 11.1 13.0----29.93-- 80.6----
2024-06-16 08:00 am S 8.0 15.9----29.93+0.04 77.4 80.6----
2024-06-16 07:54 am S 14.0 18.1----29.92- 77.2 80.6----
2024-06-16 07:48 am S 14.0 17.1----29.93- 77.5 80.6----
2024-06-16 07:42 amSSE 14.0 17.1----29.92- 77.4 80.6----
2024-06-16 07:36 am S 14.0 17.1----29.92- 77.4 80.6----
2024-06-16 07:30 amSSE 14.0 17.1----29.92- 77.0 80.6----
2024-06-16 07:24 amSSE 12.0 17.1----29.92- 76.1 80.6----
2024-06-16 07:18 am-------29.92- 75.7 80.8----
2024-06-16 07:12 am-------29.91- 75.0 80.8----
2024-06-16 07:06 am-------29.91- 75.0 80.8----
2024-06-16 07:00 amSSE 9.9 15.9----29.91+0.02 73.4 80.8----
2024-06-16 06:54 amSSE 12.0 15.0----29.91- 77.2 80.8----
2024-06-16 06:48 amSSE 13.0 15.0----29.91- 77.2 80.8----
2024-06-16 06:42 am S 12.0 15.9----29.91- 77.2 80.8----
2024-06-16 06:36 amSSE 11.1 15.0----29.91- 77.4 80.8----
2024-06-16 06:30 amSSE 13.0 15.9----29.90- 76.8 80.8----
2024-06-16 06:24 amSSE 13.0 15.9----29.90- 77.7 80.8----
2024-06-16 06:18 am SE 11.1 14.0----29.90-- 80.8----
2024-06-16 06:12 am SE 9.9 14.0----29.90-- 80.8----
2024-06-16 06:06 amSSE 12.0 15.0----29.90-- 80.8----
2024-06-16 06:00 am SE 8.9 13.0----29.90-- 80.8----
2024-06-16 05:54 am SE 11.1 14.0----29.90-- 80.8----
2024-06-16 05:48 am SE 11.1 14.0----29.90-- 80.8----
2024-06-16 05:42 am SE 11.1 14.0----29.90-- 80.8----
2024-06-16 05:36 am SE 9.9 13.0----29.90-- 80.8----
2024-06-16 05:30 am SE 11.1 14.0----29.90-- 80.8----
2024-06-16 05:24 am SE 11.1 15.0----29.90-- 80.8----
2024-06-16 05:18 am SE 11.1 13.0----29.90- 77.7 80.8----
2024-06-16 05:12 am SE 8.9 11.1----29.90- 77.9 80.8----
2024-06-16 05:06 am SE 8.0 12.0----29.89- 77.5 80.8----
2024-06-16 05:00 am SE 8.0 14.0----29.89+0.00- 80.8----
2024-06-16 04:54 am SE 8.9 13.0----29.89-- 80.8----
2024-06-16 04:48 am SE 8.9 13.0----29.89- 77.0 80.8----
2024-06-16 04:42 am SE 9.9 14.0----29.89- 77.0 80.8----
2024-06-16 04:36 am SE 8.9 14.0----29.89- 76.3 80.8----
2024-06-16 04:30 am SE 8.9 13.0----29.89- 77.0 80.8----
2024-06-16 04:24 am SE 9.9 15.9----29.89- 77.2 80.8----
2024-06-16 04:18 amSSE 11.1 17.1----29.89-- 80.8----
2024-06-16 04:12 amSSE 15.9 20.0----29.89-- 80.8----
2024-06-16 04:06 amSSE 12.0 19.0----29.89-- 80.8----
2024-06-16 04:00 am SE 14.0 17.1----29.89-0.01- 80.8----
2024-06-16 03:54 am SE 14.0 19.0----29.89-- 80.8----
2024-06-16 03:48 am SE 13.0 19.0----29.89- 78.4 80.8----
2024-06-16 03:42 am SE 15.0 19.0----29.89- 79.0 80.8----
2024-06-16 03:36 am SE 13.0 17.1----29.89- 79.0 81.0----
2024-06-16 03:30 am SE 13.0 19.0----29.89- 79.3 81.0----
2024-06-16 03:24 am SE 15.0 20.0----29.89- 79.2 81.0----
2024-06-16 03:18 am SE 15.9 19.0----29.89- 79.0 81.0----
2024-06-16 03:12 am SE 15.9 19.0----29.89- 79.2 81.0----
2024-06-16 03:06 am SE 15.9 20.0----29.89- 78.4 81.0----
2024-06-16 03:00 am SE 15.0 20.0------ 78.8 81.0----
2024-06-16 02:54 am SE 15.9 19.0------ 77.9 81.0----
2024-06-16 02:48 amESE 14.0 19.0----29.89- 77.5 81.0----
2024-06-16 02:42 amESE 13.0 21.0----29.90- 77.9 81.0----
2024-06-16 02:36 am SE 17.1 21.0----29.90- 77.9 81.0----
2024-06-16 02:30 amESE 15.0 22.0----29.89- 78.3 81.0----
2024-06-16 02:24 amESE 14.0 19.0----29.89- 78.6 81.0----
2024-06-16 02:18 amESE 13.0 18.1----29.89- 78.3 81.0----
2024-06-16 02:12 amESE 12.0 19.0----29.89- 77.9 81.0----
2024-06-16 02:06 amESE 17.1 21.0----29.89- 77.9 81.0----
2024-06-16 02:00 am SE 17.1 22.0----29.90-0.01 78.1 81.0----
2024-06-16 01:54 amESE 17.1 21.0----29.90- 77.0 81.0----
2024-06-16 01:48 amESE 17.1 20.0----29.90- 77.4 81.0----
2024-06-16 01:42 amESE 18.1 22.0----29.90- 77.2 81.0----
2024-06-16 01:36 amESE 14.0 19.0----29.90- 77.7 81.0----
2024-06-16 01:30 amESE 12.0 21.0----29.90- 77.7 81.0----
2024-06-16 01:24 amESE 15.9 21.0----29.90- 77.7 81.0----
2024-06-16 01:18 amESE 15.9 21.0----29.90- 78.1 81.0----
2024-06-16 01:12 amESE 15.0 19.0----29.90- 77.5 81.0----
2024-06-16 01:06 amESE 15.9 20.0----29.90- 78.4 81.0----
2024-06-16 01:00 amESE 14.0 19.0----29.91+0.00 78.3 81.1----
2024-06-16 12:54 amESE 15.0 20.0----29.91- 78.1 81.1----
2024-06-16 12:48 am E 17.1 20.0----29.91-- 81.1----
2024-06-16 12:42 am E 17.1 20.0----29.91-- 81.1----
2024-06-16 12:36 am E 15.0 19.0----29.91-- 81.1----
2024-06-16 12:30 am E 14.0 17.1------ 80.4 81.1----
2024-06-16 12:24 am E 14.0 18.1------ 79.9 81.1----
2024-06-16 12:18 am--------- 80.4-----
2024-06-16 12:12 am--------- 80.1-----
2024-06-16 12:06 am--------- 79.3-----
2024-06-16 12:00 am E 15.0 18.1----29.91+0.01 79.2 81.1----
2024-06-15 11:54 pm E 14.0 17.1----29.91- 76.8 81.1----
2024-06-15 11:48 pm E 13.0 15.9----29.91- 78.6 81.1----
2024-06-15 11:42 pm E 14.0 15.0----29.91- 77.4 81.1----
2024-06-15 11:36 pm E 14.0 17.1----29.91- 79.3 81.1----
2024-06-15 11:30 pm E 14.0 17.1----29.91- 77.9 81.1----
2024-06-15 11:24 pm E 13.0 15.0----29.91- 78.8 81.1----
2024-06-15 11:18 pm E 14.0 15.0----29.91-- 81.1----
2024-06-15 11:12 pm E 12.0 14.0----29.91-- 81.1----
2024-06-15 11:06 pm E 13.0 15.0----29.91-- 81.1----
2024-06-15 11:00 pm-------29.91+0.03 79.3-----
2024-06-15 10:54 pm-------29.91- 79.9-----
2024-06-15 10:48 pm E 13.0 15.0----29.91- 80.2 81.3----
2024-06-15 10:42 pm E 14.0 15.9----29.91- 79.7 81.3----
2024-06-15 10:36 pm E 15.0 17.1----29.91- 78.6 81.3----
2024-06-15 10:30 pm E 12.0 15.9----29.91- 79.9 81.3----
2024-06-15 10:24 pm E 14.0 15.9----29.90- 79.5 81.3----
2024-06-15 10:18 pm E 13.0 15.0----29.90- 79.2 81.3----
2024-06-15 10:12 pm E 13.0 15.0----29.90- 79.0 81.3----
2024-06-15 10:06 pm E 13.0 15.0----29.90- 77.4 81.3----
2024-06-15 10:00 pm E 13.0 15.0----29.90+0.02 78.1 81.3----
2024-06-15 09:54 pm E 14.0 17.1----29.90- 78.6 81.3----
2024-06-15 09:48 pm E 12.0 15.0----29.90- 79.9 81.3----
2024-06-15 09:42 pm E 13.0 15.0----29.90- 79.9 81.3----
2024-06-15 09:36 pm E 13.0 15.9----29.90- 78.8 81.3----
2024-06-15 09:30 pm E 12.0 14.0----29.90- 79.7 81.3----
2024-06-15 09:24 pm E 13.0 15.0----29.90- 78.6 81.3----
2024-06-15 09:18 pm E 12.0 14.0----29.90-- 81.3----
2024-06-15 09:12 pm E 12.0 15.0----29.90- 79.3 81.5----
2024-06-15 09:06 pm E 13.0 15.0----29.90- 78.8 81.5----
2024-06-15 09:00 pm E 12.0 15.0----29.90+0.01 78.8 81.3----
2024-06-15 08:54 pm E 14.0 15.0----29.89- 78.1 81.3----
2024-06-15 08:48 pm E 13.0 15.0----29.89-------
2024-06-15 08:42 pm E 11.1 14.0----29.89- 79.9 81.3----
2024-06-15 08:36 pm E 12.0 14.0----29.89- 79.0 81.3----
2024-06-15 08:30 pm E 11.1 13.0----29.89-- 81.5----
2024-06-15 08:24 pm E 8.9 12.0----29.89-- 81.5----
2024-06-15 08:18 pm E 9.9 13.0----29.88- 79.0 81.5----
2024-06-15 08:12 pm E 11.1 12.0----29.88- 79.2 81.5----
2024-06-15 08:06 pm E 12.0 13.0----29.88- 79.2 81.5----
2024-06-15 08:00 pm E 12.0 12.0----29.88-0.01 79.0 81.5----
2024-06-15 07:54 pm E 8.9 14.0----29.88- 78.4 81.5----
2024-06-15 07:48 pm E 11.1 14.0----29.88- 79.2 81.5----
2024-06-15 07:42 pm E 11.1 13.0----29.88- 79.2 81.5----
2024-06-15 07:36 pm E 11.1 13.0----29.88- 79.0 81.5----
2024-06-15 07:30 pm E 11.1 15.0----29.88-- 81.7----
2024-06-15 07:24 pm E 11.1 15.0----29.88-- 81.7----
2024-06-15 07:18 pm E 12.0 14.0----29.88- 79.3 81.7----
2024-06-15 07:12 pm E 12.0 14.0----29.88- 80.2 81.7----
2024-06-15 07:06 pm E 12.0 14.0----29.88- 80.1 81.7----
2024-06-15 07:00 pm E 11.1 15.0----29.88-0.03- 81.7----
2024-06-15 06:54 pm E 11.1 14.0----29.88-- 81.7----
2024-06-15 06:48 pm-------29.88-- 81.7----
2024-06-15 06:42 pm-------29.88- 80.2 81.7----
2024-06-15 06:36 pm-------29.88- 80.6 81.7----
2024-06-15 06:30 pm E 12.0 14.0----29.88- 81.0 81.7----
2024-06-15 06:24 pm E 13.0 14.0----29.88- 81.5 81.7----
2024-06-15 06:18 pm E 12.0 15.9----29.88-- 81.7----
2024-06-15 06:12 pm E 14.0 17.1----29.88-- 81.7----
2024-06-15 06:06 pm E 14.0 15.9----29.88-- 81.9----
2024-06-15 06:00 pm E 14.0 15.0----29.88-0.03 80.1 81.7----
2024-06-15 05:54 pmENE 13.0 15.0----29.88- 80.6 81.9----
2024-06-15 05:48 pm E 14.0 15.9----29.88- 80.4 81.9----
2024-06-15 05:42 pm E 12.0 17.1----29.88- 79.2 81.9----
2024-06-15 05:36 pm E 14.0 15.9----29.89- 77.5 81.9----
2024-06-15 05:30 pmENE 15.0 17.1----29.89-- 81.9----
2024-06-15 05:24 pm E 13.0 15.9----29.89-- 81.9----
2024-06-15 05:18 pm E 12.0 15.9----29.89- 82.0 81.9----
2024-06-15 05:12 pmENE 12.0 15.0----29.89- 81.5 81.9----
2024-06-15 05:06 pm E 13.0 15.0----29.89- 81.7 81.9----
2024-06-15 05:00 pmENE 14.0 15.0----29.89-0.04------
2024-06-15 04:54 pmENE 14.0 15.9----29.89-------
2024-06-15 04:48 pmENE 14.0 15.9----29.89-- 81.9----
2024-06-15 04:42 pmENE 14.0 15.9----29.90-- 81.9----
2024-06-15 04:36 pmENE 14.0 15.9----29.90-- 81.9----
2024-06-15 04:30 pmENE 14.0 17.1----29.90- 85.3-----
2024-06-15 04:24 pmENE 15.0 15.9----29.90- 85.6-----
2024-06-15 04:18 pmENE 13.0 18.1----29.90-- 81.7----
2024-06-15 04:12 pmENE 13.0 18.1----29.91-- 81.7----
2024-06-15 04:06 pm E 14.0 18.1----29.91-- 81.7----
2024-06-15 04:00 pm E 13.0 18.1----29.91-0.04- 81.7----
2024-06-15 03:54 pmENE 14.0 18.1----29.91-- 81.7----
2024-06-15 03:48 pm-------29.91- 80.4 81.7----
2024-06-15 03:42 pm-------29.91- 85.6 81.7----
2024-06-15 03:36 pm-------29.91- 86.2 81.7----
2024-06-15 03:30 pmENE 13.0 15.9----29.91- 85.3 81.7----
2024-06-15 03:24 pmENE 15.0 15.9----29.91- 85.3 81.7----
2024-06-15 03:18 pmENE 13.0 15.9----29.91- 86.5 81.7----
2024-06-15 03:12 pmENE 14.0 15.0----29.91- 86.9 81.7----
2024-06-15 03:06 pmENE 13.0 18.1----29.92- 86.4 81.7----
2024-06-15 03:00 pmENE 13.0 17.1----29.92-0.04- 81.7----
2024-06-15 02:54 pmENE 12.0 15.9----29.92-- 81.7----
2024-06-15 02:48 pmENE 15.0 17.1----29.92-- 81.7----
2024-06-15 02:42 pmENE 14.0 18.1----29.92-- 81.7----
2024-06-15 02:36 pmENE 15.0 19.0----29.92-- 81.7----
2024-06-15 02:30 pmENE 15.0 17.1----29.92- 85.5 81.7----
2024-06-15 02:24 pmENE 15.0 17.1----29.93- 84.7 81.7----
2024-06-15 02:18 pm E 17.1 18.1----29.93- 83.7 81.5----
2024-06-15 02:12 pmENE 17.1 19.0----29.93- 85.5 81.5----
2024-06-15 02:06 pmENE 17.1 19.0----29.93- 86.2 81.5----
2024-06-15 02:00 pmENE 14.0 19.0----29.93-0.02- 81.5----
2024-06-15 01:54 pmENE 15.0 20.0----29.93-- 81.5----
2024-06-15 01:48 pmENE 15.9 20.0----29.93-- 81.5----
2024-06-15 01:42 pmENE 17.1 19.0----29.93-- 81.5----
2024-06-15 01:36 pmENE 15.9 20.0----29.94-- 81.3----
2024-06-15 01:30 pmENE 17.1 19.0------ 86.7 81.3----
2024-06-15 01:24 pmENE 17.1 19.0------ 86.5 81.3----
2024-06-15 01:18 pmENE 15.9 19.0----29.94-- 81.3----
2024-06-15 01:12 pmENE 15.9 18.1----29.94-- 81.3----
2024-06-15 01:06 pmENE 15.9 19.0----29.95-- 81.3----
2024-06-15 01:00 pmENE 17.1 19.0----29.95+0.00 86.7 81.3----
2024-06-15 12:54 pmENE 15.9 19.0----29.95- 86.7 81.3----
2024-06-15 12:48 pmENE 15.9 19.0----29.95-- 81.1----
2024-06-15 12:42 pmENE 15.0 17.1----29.95-- 81.3----
2024-06-15 12:36 pmENE 14.0 17.1----29.95-- 81.1----
2024-06-15 12:30 pmENE 14.0 17.1----29.95- 85.8 81.1----
2024-06-15 12:24 pmENE 14.0 15.9----29.95- 85.8 81.1----
2024-06-15 12:18 pmENE 14.0 15.9----29.95-------
2024-06-15 12:12 pmENE 14.0 15.9----29.95-------
2024-06-15 12:06 pmENE 15.0 15.9----29.95-------
2024-06-15 12:00 pmENE 14.0 15.9----29.95+0.00 83.7 81.0----
2024-06-15 11:54 amENE 15.0 17.1----29.95- 85.5 81.0----
2024-06-15 11:48 amENE 15.0 15.9----29.95- 86.4 81.0----
2024-06-15 11:42 amENE 14.0 15.9----29.95- 84.2 81.0----
2024-06-15 11:36 amENE 15.0 17.1----29.96- 85.6 81.0----
2024-06-15 11:30 am NE 14.0 15.9----29.95- 84.7 81.0----
2024-06-15 11:24 amENE 15.0 15.9----29.95- 85.3 81.0----
2024-06-15 11:18 amENE 12.0 14.0----29.96- 84.9 80.8----
2024-06-15 11:12 am NE 12.0 14.0----29.96- 85.8 80.8----
2024-06-15 11:06 amENE 12.0 14.0----29.96- 86.2 80.8----
2024-06-15 11:00 am NE 12.0 15.0----29.96- 85.6 80.8----
2024-06-15 10:54 am NE 12.0 14.0----29.96- 84.9 80.6----